World > North America > United States > Alabama

Mount Meigs, Alabama Regional Weather

Lat: 32.36N, Lon: 86.1W
Wx Zone: ALZ044Web Search

If you are on your PC, you can easily pass this page to your phone by scanning the QR Code near the bottom with your camera.

Feedback


°F Click to change Mount Meigs hourly weather to Imperial units.Click to change Mount Meigs hourly weather to Metric units. °C
Mount Meigs Weather Map
UTC Time: 4/17/2021, 20:46
Your Time:

Mount Meigs, AL Regional Weather

Expires:202104172100;;706409
ASUS44 KBMX 172010
RWRAL 
             
ALABAMA REGIONAL WEATHER ROUNDUP
NATIONAL WEATHER SERVICE BIRMINGHAM AL
300 PM CDT SAT APR 17 2021

NOTE: "FAIR" INDICATES FEW OR NO CLOUDS BELOW 12,000 FEET
WITH NO SIGNIFICANT WEATHER AND/OR OBSTRUCTIONS TO VISIBILITY.

THE REMARK "TC" DENOTES TEMPERATURE IN DEGREES CELSIUS.


ALZ015-024>026-033>036-041>044-172100-
CENTRAL ALABAMA
  
CITY           SKY/WX    TMP DP  RH WIND       PRES   REMARKS
BIRMINGHAM     PTSUNNY   71  47  42 W13       29.88S                  
MONTGOMERY     CLOUDY    73  54  51 SW8       29.85S                  
SHELBY CO ARPT FAIR      69  47  45 MISG      29.85F                  
MAXWELL AFB    CLOUDY    72  53  50 W3        29.83S                  
GREENVILLE     NOT AVBL                                               
SELMA          CLOUDY    72  50  46 SW6G13    29.85F                  
PRATTVILLE     CLOUDY    71  53  52 W7        29.85R                  
BESSEMER       FAIR      70  50  49 W10       29.86F                  
TALLADEGA      PTSUNNY   69  44  40 CALM      29.84F                  
PELL CITY      PTSUNNY   70  46  43 MISG      29.85F                  
SYLACAUGA      PTSUNNY   70  49  47 W9        29.85F                  
$$
 

SKY/WX - Weather  TMP - Temperature  DP - Dew Point  RH - Relative Humidity
WIND - Wind Direction/Speed PRES - Barometric Pressure VSB - Visibility
WCI - Wind Chill Index E13G22 Wind - East Wind 13 mph/Gusts of 22 mph